This is the latest recevied weather packets stored in our database for station/object DH9SB-6. If no packets are shown the sender has not sent any weather packets the latest 10 day(s).
| Time | Temp. | Humidity | Pressure | Rain* | Wind** | Luminosity | Snow |
|---|---|---|---|---|---|---|---|
| 1787843578 | 32.22° C | 34% | - | 0 mm | - | - | - |
| 1787842956 | 32.78° C | 30% | - | 0 mm | - | - | - |
| 1787842382 | 32.78° C | 31% | - | 0 mm | - | - | - |
| 1787841755 | 33.33° C | 31% | - | 0 mm | - | - | - |
| 1787841180 | 33.89° C | 31% | - | 0 mm | - | - | - |
| 1787840558 | 33.33° C | 31% | - | 0 mm | - | - | - |
| 1787839982 | 33.33° C | 32% | - | 0 mm | - | - | - |
| 1787839355 | 33.33° C | 31% | - | 0 mm | - | - | - |
| 1787838780 | 33.33° C | 32% | - | 0 mm | - | - | - |
| 1787838155 | 32.78° C | 32% | - | 0 mm | - | - | - |
| 1787837579 | 32.78° C | 31% | - | 0 mm | - | - | - |
| 1787836956 | 32.78° C | 32% | - | 0 mm | - | - | - |
| 1787836379 | 32.78° C | 32% | - | 0 mm | - | - | - |
| 1787835756 | 32.78° C | 32% | - | 0 mm | - | - | - |
| 1787835179 | 32.78° C | 31% | - | 0 mm | - | - | - |
| 1787834556 | 33.33° C | 32% | - | 0 mm | - | - | - |
| 1787834267 | 33.33° C | 33% | - | 0 mm | - | - | - |
| 1787833644 | 33.33° C | 33% | - | 0 mm | - | - | - |
| 1787833069 | 32.78° C | 33% | - | 0 mm | - | - | - |
| 1787832444 | 32.78° C | 37% | - | 0 mm | - | - | - |
| 1787831868 | 31.67° C | 40% | - | 0 mm | - | - | - |
| 1787831579 | 31.67° C | 41% | - | 0 mm | - | - | - |
| 1787830956 | 31.67° C | 42% | - | 0 mm | - | - | - |
| 1787830380 | 31.67° C | 42% | - | 0 mm | - | - | - |
| 1787829756 | 31.67° C | 42% | - | 0 mm | - | - | - |
* Rain latest hour (hover to see other rain measurements)
** Current wind speed in m/s (hover to see current wind gust speed)